Sanger
DateTemperatureDew Point
05/09 - 05:45 AM51.4°51.3°
05/09 - 05:30 AM52.3°52.0°
05/09 - 05:15 AM53.8°53.0°
05/09 - 05:00 AM55.5°54.4°
05/09 - 04:45 AM56.3°55.1°
05/09 - 04:30 AM56.3°55.2°
05/09 - 04:15 AM56.2°54.5°
05/09 - 04:00 AM57.5°55.1°
05/09 - 03:45 AM58.3°55.3°
05/09 - 03:30 AM59.2°55.8°
05/09 - 03:15 AM59.8°56.1°
05/09 - 03:00 AM59.6°56.4°
05/09 - 02:45 AM59.1°56.2°
05/09 - 02:30 AM59.2°56.3°
05/09 - 02:15 AM59.3°56.0°
05/09 - 02:00 AM59.7°56.1°
05/09 - 01:45 AM59.6°55.9°
05/09 - 01:30 AM60.2°55.8°
05/09 - 01:15 AM60.9°55.9°
05/09 - 01:00 AM61.6°56.1°
05/09 - 12:45 AM62.2°56.4°
05/09 - 12:30 AM62.8°56.6°
05/09 - 12:15 AM63.6°56.6°
05/09 - 12:00 AM63.3°56.9°
05/08 - 11:45 PM63.2°57.1°
05/08 - 11:30 PM63.8°56.8°
05/08 - 11:15 PM64.7°56.6°
05/08 - 11:00 PM65.2°56.3°
05/08 - 10:45 PM65.2°56.1°
05/08 - 10:30 PM63.9°55.4°
05/08 - 10:15 PM63.8°55.1°
05/08 - 10:00 PM64.7°55.4°
05/08 - 09:45 PM65.0°55.9°
05/08 - 09:30 PM65.8°56.3°
05/08 - 09:15 PM67.6°56.2°
05/08 - 09:00 PM68.4°56.9°
05/08 - 08:45 PM70.4°56.8°
05/08 - 08:30 PM71.3°56.6°
05/08 - 08:15 PM72.4°56.1°
05/08 - 08:00 PM73.7°55.3°
05/08 - 07:45 PM75.4°54.9°
05/08 - 07:30 PM77.6°53.9°
05/08 - 07:15 PM79.8°52.3°
05/08 - 07:00 PM81.3°50.8°
05/08 - 06:45 PM82.6°51.1°
05/08 - 06:30 PM83.5°51.8°
05/08 - 06:15 PM84.9°52.6°
05/08 - 06:00 PM86.0°53.2°
05/08 - 05:45 PM85.8°53.6°
05/08 - 05:30 PM86.8°52.9°
05/08 - 05:15 PM87.0°52.7°
05/08 - 05:00 PM88.1°53.4°
05/08 - 04:45 PM88.3°53.6°
05/08 - 04:30 PM88.6°55.3°
05/08 - 04:15 PM88.9°54.5°
05/08 - 04:00 PM89.1°54.1°
05/08 - 03:45 PM89.0°52.4°
05/08 - 03:30 PM88.6°51.2°
05/08 - 03:15 PM88.2°53.7°
05/08 - 03:00 PM88.5°54.6°
05/08 - 02:45 PM88.2°54.5°
05/08 - 02:30 PM88.1°54.3°
05/08 - 02:15 PM87.8°52.5°
05/08 - 02:00 PM87.4°52.2°
05/08 - 01:45 PM86.9°52.5°
05/08 - 01:30 PM86.1°53.8°
05/08 - 01:15 PM85.7°55.6°
05/08 - 01:00 PM84.9°55.5°
05/08 - 12:45 PM84.6°58.3°
05/08 - 12:30 PM83.8°59.6°
05/08 - 12:15 PM82.5°59.5°
05/08 - 12:00 PM81.9°59.8°
05/08 - 11:45 AM81.1°60.1°
05/08 - 11:30 AM79.8°60.2°
05/08 - 11:15 AM78.7°61.1°
05/08 - 11:00 AM77.3°61.0°
05/08 - 10:45 AM76.6°61.1°
05/08 - 10:30 AM75.5°61.1°
05/08 - 10:15 AM74.6°60.8°
05/08 - 10:00 AM73.4°60.5°
05/08 - 09:45 AM72.3°60.5°
05/08 - 09:30 AM70.7°59.8°
05/08 - 09:15 AM69.6°59.5°
05/08 - 09:00 AM68.1°58.9°
05/08 - 08:45 AM66.6°58.2°
05/08 - 08:30 AM65.3°57.9°
05/08 - 08:15 AM64.0°57.3°
05/08 - 08:00 AM62.8°57.0°
05/08 - 07:45 AM62.1°57.2°
05/08 - 07:30 AM61.1°57.5°
05/08 - 07:15 AM59.9°57.5°
05/08 - 07:00 AM59.1°57.8°
05/08 - 06:45 AM58.1°57.7°
05/08 - 06:30 AM57.3°57.2°
05/08 - 06:15 AM56.6°56.6°
05/08 - 06:00 AM56.4°56.4°
05/08 - 05:45 AM56.8°56.8°
05/08 - 05:30 AM56.9°56.9°
05/08 - 05:15 AM56.7°56.7°
05/08 - 05:00 AM57.0°57.0°
05/08 - 04:45 AM57.4°57.4°
05/08 - 04:30 AM58.4°58.3°
05/08 - 04:15 AM58.8°58.6°
05/08 - 04:00 AM59.1°58.8°
05/08 - 03:45 AM59.6°59.3°
05/08 - 03:30 AM59.9°59.6°
05/08 - 03:15 AM59.7°59.7°
05/08 - 03:00 AM59.2°58.9°
05/08 - 02:45 AM60.1°59.2°
05/08 - 02:30 AM61.7°59.7°
05/08 - 02:15 AM63.0°60.3°
05/08 - 02:00 AM63.4°60.8°
05/08 - 01:45 AM63.6°61.8°
05/08 - 01:30 AM62.3°62.3°
05/08 - 01:15 AM61.4°61.4°
05/08 - 01:00 AM60.6°60.6°
05/08 - 12:45 AM60.7°60.6°
05/08 - 12:30 AM61.2°61.2°
05/08 - 12:15 AM60.8°60.8°
05/08 - 12:00 AM60.5°60.4°
05/07 - 11:45 PM60.7°60.7°
05/07 - 11:30 PM61.1°61.0°
05/07 - 11:15 PM61.5°61.5°
05/07 - 11:00 PM62.1°62.0°
05/07 - 10:45 PM62.7°62.5°
05/07 - 10:30 PM63.6°62.8°
05/07 - 10:15 PM64.7°63.2°
05/07 - 10:00 PM66.0°63.4°
05/07 - 09:45 PM67.4°63.5°
05/07 - 09:30 PM69.5°63.5°
05/07 - 09:15 PM71.6°63.4°
05/07 - 09:00 PM71.7°63.6°
05/07 - 08:45 PM70.5°64.2°
05/07 - 08:30 PM71.5°64.1°
05/07 - 08:15 PM73.5°64.2°
05/07 - 08:00 PM75.7°63.9°
05/07 - 07:45 PM77.3°63.6°
05/07 - 07:30 PM79.0°63.7°
05/07 - 07:15 PM80.8°63.8°
05/07 - 07:00 PM81.8°63.8°
05/07 - 06:45 PM82.6°64.0°
05/07 - 06:30 PM83.2°64.2°
05/07 - 06:15 PM84.0°63.9°
05/07 - 06:00 PM84.9°63.6°
05/07 - 05:45 PM84.7°63.1°
05/07 - 05:30 PM85.1°63.4°
05/07 - 05:15 PM85.7°62.8°
05/07 - 05:00 PM86.6°61.7°
05/07 - 04:45 PM86.4°60.0°
05/07 - 04:30 PM86.7°60.4°
05/07 - 04:15 PM86.6°60.4°
05/07 - 04:00 PM86.6°60.5°
05/07 - 03:45 PM86.6°60.6°
05/07 - 03:30 PM87.0°61.2°
05/07 - 03:15 PM86.4°61.0°
05/07 - 03:00 PM86.3°60.8°
05/07 - 02:45 PM86.3°61.2°
05/07 - 02:30 PM85.9°61.4°
05/07 - 02:15 PM85.2°60.7°
05/07 - 02:00 PM84.2°61.1°
05/07 - 01:45 PM84.7°61.3°
05/07 - 01:30 PM84.1°61.4°
05/07 - 01:15 PM83.5°60.9°
05/07 - 01:00 PM82.6°60.0°
05/07 - 12:45 PM82.5°60.5°
05/07 - 12:30 PM81.8°60.3°
05/07 - 12:15 PM81.1°60.5°
05/07 - 12:00 PM81.2°61.2°
05/07 - 11:45 AM80.2°60.7°
05/07 - 11:30 AM79.8°61.4°
05/07 - 11:15 AM79.2°61.4°
05/07 - 11:00 AM77.5°61.6°
05/07 - 10:45 AM76.7°61.3°
05/07 - 10:30 AM75.8°61.6°
05/07 - 10:15 AM74.6°61.7°
05/07 - 10:00 AM73.5°61.6°
05/07 - 09:45 AM72.2°61.3°
05/07 - 09:30 AM71.0°61.0°
05/07 - 09:15 AM69.7°60.7°
05/07 - 09:00 AM68.3°60.6°
05/07 - 08:45 AM66.5°60.1°
05/07 - 08:30 AM65.0°60.4°
05/07 - 08:15 AM63.3°60.6°
05/07 - 08:00 AM61.7°61.3°
05/07 - 07:45 AM60.2°60.2°
05/07 - 07:30 AM58.8°58.8°
05/07 - 07:15 AM57.6°57.6°
05/07 - 07:00 AM56.7°56.6°
05/07 - 06:45 AM55.1°55.1°
05/07 - 06:30 AM53.4°53.4°
05/07 - 06:15 AM52.5°52.5°